Orbital Elements at Epoch 2459000.5 (2020-May-31.0) TDB
Reference: JPL 16 (heliocentric ecliptic J2000)
Element | Value | Uncertainty (1-sigma) | Units |
e | .08995329115766505 | 5.0247e-08 | |
a | 2.482460310315394 | 1.2817e-08 | au |
q | 2.259154835234246 | 1.2226e-07 | au |
i | 2.59031373880742 | 4.8929e-06 | deg |
node | 211.8889406260501 | 0.00011795 | deg |
peri | 227.9161745846662 | 0.00012119 | deg |
M | 162.3599058220117 | 3.1043e-05 | deg |
tp | 2458356.185081130784 (2018-Aug-25.68508113) | 0.00012077 | TDB |
period | 1428.637012435807 3.91 | 1.1064e-05 3.029e-08 | d yr |
n | .2519884315374167 | 1.9515e-09 | deg/d |
Q | 2.705765785396542 | 1.397e-08 | au |
|
| | Orbit Determination Parameters
Additional Information
|